Weather Roundup
Issued by NWS Springfield, MO

Home | Current Version | Previous Version | Text Only | Print | Product List | Glossary On
Versions: 1 2 3 4 5 6 7 8 9 10 11 12 13 14 15 16 17 18 19 20 21 22 23 24 25 26 27 28 29 30 31 32 33 34 35 36 37 38 39 40 41 42 43 44 45 46 47 48 49 50
000
NZUS99 KSGF 040907
HRRSGF

HOURLY WEATHER
NATIONAL WEATHER SERVICE SPRINGFIELD MO
400 AM CDT SAT JUL 04 2015

......SGF CWA......

CITY           SKY/WX    TMP DP  RH WIND       PRES   REMARKS
SPRINGFIELD    PTCLDY    66  63  90 N5        29.96F
JOPLIN         PTCLDY    68  66  93 NE5       29.96F FOG
WEST PLAINS    PTCLDY    66  62  87 N5        29.97S
ROLLA          CLEAR     62  60  93 CALM      29.96S
OSAGE BEACH    CLEAR     61  57  88 CALM      29.97S
BRANSON        PTCLDY    66  66 100 CALM      29.97S FOG

......SURROUNDING SGF CWA......

CITY           SKY/WX    TMP DP  RH WIND       PRES   REMARKS
CHANUTE        MOCLDY    68  63  84 E5        29.97S
PARSONS        CLOUDY    69  66  90 CALM      29.97S
COFFEYVILLE    PTCLDY    68  66  93 NE6       29.95S
EMPORIA        PTCLDY    62  60  93 CALM      29.99S
GROVE OK       FOG       70  70 100 CALM      29.94F VSB 1/2
ROGERS AR      PTCLDY    69  68  96 NE3       29.97S FOG
SILOAM SPRINGS CLEAR     66  61  82 CALM        N/A
HARRISON AR    FOG       68  68 100 NW3       29.96F VSB<1/4
NEAR YELLVILLE CLOUDY    66  64  94 CALM      29.92S VSB 1/4

......KANSAS AND MISSOURI......

CITY           SKY/WX    TMP DP  RH WIND       PRES   REMARKS
KANSAS CTY INT CLEAR     64  58  80 E5        29.98S
DOWNTOWN KC    CLEAR     67  62  84 CALM      29.97F
COLUMBIA       CLEAR     64  59  83 N3        29.97S
SEDALIA        CLEAR     63  60  90 CALM      29.99S
ST JOSEPH      CLEAR     59  58  96 N3        29.98F
ST LOUIS       CLEAR     70  65  84 CALM      29.95S HAZE
SPIRIT OF STL  CLEAR     64  64 100 CALM      29.94S FOG
KIRKSVILLE     CLEAR     57  55  93 CALM      29.99F FOG
WICHITA        CLEAR     68  61  78 E3        29.98S
TOPEKA         CLEAR     62  60  93 CALM      29.99R FOG
OLATHE         CLEAR     62  59  90 E3        29.98S

......TENNESSEE......

CITY           SKY/WX    TMP DP  RH WIND       PRES   REMARKS
MEMPHIS        CLOUDY    72  70  93 S5        29.91R
NASHVILLE      PTCLDY    69  69 100 S3        29.93R

......ARKANSAS.......

CITY           SKY/WX    TMP DP  RH WIND       PRES   REMARKS
FAYETTEVILLE   FOG       65  65 100 CALM      29.96S VSB 1/4
FT SMITH       CLEAR     71  68  90 CALM      29.91S
LITTLE ROCK    MOCLDY    70  67  90 S3        29.95R

......OKLAHOMA.......

CITY           SKY/WX    TMP DP  RH WIND       PRES   REMARKS
TULSA          PTCLDY    70  69  97 NW5       29.93F
PONCA CITY     CLEAR     67  65  93 CALM      29.96S
MCALESTER      MOCLDY    71  69  93 S3        29.93F
OKLAHOMA CITY  PTCLDY    72  69  90 CALM      29.95F

......IOWA............

CITY           SKY/WX    TMP DP  RH WIND       PRES   REMARKS
DES MOINES     PTCLDY    64  55  72 SW3       29.98S
QUAD CITIES    CLEAR     58  55  90 CALM      29.97S FOG

......ILLINOIS........

CITY           SKY/WX    TMP DP  RH WIND       PRES   REMARKS
QUINCY         CLEAR     62  59  90 N6        29.96F
CHICAGO        CLEAR     61  54  77 W3        29.95S




USA.gov is the U.S. government's official web portal to all federal, state and local government web resources and services.